Weather History for Hill City, KS

Change the Weather History Date:

Tuesday, November 20, 2012

  Actual Average Record
Temperature  
Mean Temperature 50 °F 38 °F  
Max Temperature 72 °F 51 °F 73 °F (2003)
Min Temperature 27 °F 26 °F 5 °F (1985)
Degree Days  
Heating Degree Days 16    
Moisture  
Dew Point 33 °F    
Average Humidity 38    
Maximum Humidity 53    
Minimum Humidity 24    
Precipitation  
Precipitation 0.00 in 0.02 in 0.02 in (1996)
Month to date precipitation 0.00 0.71  
Year to date precipitation 9.74 21.99  
Sea Level Pressure  
Sea Level Pressure 30.19 in    
Wind  
Wind Speed 5 mph (SW)    
Max Wind Speed 16 mph    
Max Gust Speed 22 mph    
Visibility 10 miles    
Events      
T = Trace of Precipitation, MM = Missing Value Source: NWS Daily Summary

Daily Weather History Graph

Daily Weather History Graph

Search for Another Location

Airport:

Trip Planner

Search our weather history database for the weather conditions in past years. The results will help you decide how hot, cold, wet, or windy it might be!

Date:

Astronomy

Nov. 20, 2012 Rise Set
Actual Time 7:29 AM CST 5:20 PM CST
Civil Twilight 7:00 AM CST 5:49 PM CST
Nautical Twilight 6:27 AM CST 6:22 PM CST
Astronomical Twilight 5:55 AM CST 6:54 PM CST
Moon 1:05 PM CST (11/20) No Moon Set
Length of Visible Light 10h 49m
Length of Day
9h 51m
First Quarter, 51% of the Moon is Illuminated
Nov 20
First Quarter
Nov 28
Full
Dec 6
Last Quarter
Dec 13
New
Dec 19
First Quarter

Hourly Weather History & Observations

Time (CST) Temp. Windchill Dew Point Humidity Pressure Visibility Wind Dir Wind Speed Gust Speed Precip Events Conditions
12:53 AM 32.0 °F - - N/A% 30.21 in 10.0 mi Calm Calm - N/A   Clear
1:53 AM 30.9 °F - - N/A% 30.21 in 10.0 mi Calm Calm - N/A   Clear
2:53 AM 33.1 °F 30.0 °F - N/A% 30.21 in 10.0 mi West 3.5 mph - N/A   Clear
3:53 AM 32.0 °F 27.5 °F - N/A% 30.22 in 10.0 mi WSW 4.6 mph - N/A   Clear
4:53 AM 30.0 °F 26.5 °F - N/A% 30.24 in 10.0 mi WSW 3.5 mph - N/A   Clear
6:53 AM 28.0 °F - - N/A% 30.29 in 10.0 mi Calm Calm - N/A   Clear
7:53 AM 28.9 °F - - N/A% 30.29 in 10.0 mi Calm Calm - N/A   Clear
8:53 AM 37.9 °F 35.5 °F - N/A% 30.29 in 10.0 mi West 3.5 mph - N/A   Clear
9:53 AM 48.9 °F - 30.9 °F 50% 30.27 in 10.0 mi West 4.6 mph - N/A   Clear
10:53 AM 55.9 °F - 33.1 °F 42% 30.26 in 10.0 mi SSW 4.6 mph - N/A   Clear
11:53 AM 66.0 °F - 33.1 °F 29% 30.23 in 10.0 mi SW 12.7 mph - N/A   Clear
12:53 PM 68.0 °F - 33.1 °F 27% 30.19 in 10.0 mi SSW 16.1 mph 21.9 mph N/A   Clear
1:53 PM 71.1 °F - 33.1 °F 25% 30.17 in 10.0 mi SW 12.7 mph - N/A   Clear
2:53 PM 71.1 °F - 32.0 °F 24% 30.14 in 10.0 mi South 16.1 mph 20.7 mph N/A   Clear
3:53 PM 71.1 °F - 32.0 °F 24% 30.12 in 10.0 mi SSW 15.0 mph 19.6 mph N/A   Clear
4:53 PM 66.9 °F - 33.1 °F 28% 30.13 in 10.0 mi South 9.2 mph - N/A   Clear
5:53 PM 60.1 °F - 33.1 °F 36% 30.14 in 10.0 mi South 3.5 mph - N/A   Clear
6:53 PM 55.9 °F - 33.1 °F 42% 30.16 in 10.0 mi South 3.5 mph - N/A   Clear
7:53 PM 51.1 °F - 32.0 °F 48% 30.17 in 10.0 mi SSW 5.8 mph - N/A   Clear
8:53 PM 51.1 °F - 32.0 °F 48% 30.16 in 10.0 mi SW 6.9 mph - N/A   Clear
9:53 PM 50.0 °F - 32.0 °F 50% 30.14 in 10.0 mi SW 6.9 mph - N/A   Clear
10:53 PM 52.0 °F - 34.0 °F 50% 30.12 in 10.0 mi SSW 9.2 mph - N/A   Clear
11:53 PM 52.0 °F - 35.1 °F 53% 30.10 in 10.0 mi Variable 4.6 mph - N/A   Clear